Regional Weather Roundup
Issued by NWS

Home | Current Version | Previous Version | Graphics & Text | Print | Product List | Glossary On
Versions: 1 2 3 4 5 6 7 8 9 10 11 12 13 14 15 16 17 18 19 20 21 22 23 24 25 26 27 28 29 30 31 32 33 34 35 36 37 38 39 40 41 42 43 44 45 46 47 48 49 50
793
ASUS43 KDMX 300801
RWRIA

WEATHER ROUNDUP FOR IOWA
NATIONAL WEATHER SERVICE DES MOINES IA
300 AM CDT TUE MAY 30 2017

NOTE: "FAIR" INDICATES FEW OR NO CLOUDS BELOW 12,000 FEET WITH NO
SIGNIFICANT WEATHER AND/OR OBSTRUCTIONS TO VISIBILITY.

* - THESE STATIONS ARE NOT NWS STATIONS...THUS NOT UNDER NWS
QUALITY CONTROL.  THEY ALSO DO NOT REPORT WEATHER SUCH
AS PRECIPITATION OR FOG.

IAZ001>003-012>014-020>022-031>034-043>046-300900-
   NORTHWEST IOWA

CITY           SKY/WX    TMP DP  RH WIND       PRES   REMARKS
CARROLL *      PTCLDY    52  46  82 W6        30.00F
CHEROKEE *     CLOUDY    47  46  93 S3        30.00S
DENISON *      CLOUDY    52  45  76 CALM      30.03S
LE MARS *      CLOUDY    52  45  76 SW3       30.02S
ORANGE CITY *  CLOUDY    52  45  76 W5        30.00S
SHELDON *      MOCLDY    50  41  71 SW5       29.98S
SIOUX CITY     MOCLDY    50  43  77 CALM      30.02S
SPENCER        CLEAR     47  42  83 W9        29.99S
STORM LAKE *   CLOUDY    50  41  71 W8        30.00F
$$

IAZ055>058-069>071-079>083-090>094-300900-
   SOUTHWEST IOWA

CITY           SKY/WX    TMP DP  RH WIND       PRES   REMARKS
ATLANTIC *     MOCLDY    52  46  82 S5        30.02F
AUDUBON *      MOCLDY    48  45  87 CALM      30.03S
CLARINDA *     CLEAR     46  46 100 SW5       30.07R
COUNCIL BLFS * CLEAR     55  46  71 SW7       30.04S
CRESTON *      CLEAR     54  43  66 SW6       30.05S
HARLAN  *      CLOUDY    50  50 100 CALM      30.06S
LAMONI         CLEAR     52  45  77 W6        30.04S
RED OAK *      CLEAR     50  48  93 CALM      30.05R
SHENANDOAH *   CLEAR     50  46  87 CALM      30.05S
$$

IAZ047>049-059>061-072>074-084-300900-
   CENTRAL IOWA

CITY           SKY/WX    TMP DP  RH WIND       PRES   REMARKS
AMES           CLEAR     51  45  79 W8        29.99F
ANKENY *       PTCLDY    48  46  93 CALM      30.02S
BOONE *        CLEAR     50 N/A N/A SW6       29.99S
CHARITON *     CLEAR     52  45  76 W7        30.02F
DES MOINES     PTCLDY    54  45  71 SW5       30.01S
GRINNELL*      CLEAR     51  46  80 SW7       30.01S
KNOXVILLE *    CLEAR     52  45  76 W7        30.00S
MARSHALLTOWN   CLEAR     50  47  89 W6        29.98S
NEWTON *       CLEAR     50  46  87 SW5       30.00R
PELLA *        PTCLDY    55  48  78 W5        30.02S
PERRY *          N/A     50  46  84 W6        30.00F
$$

IAZ004>006-015-016-023>025-035-036-300900-
   NORTH CENTRAL IOWA

CITY           SKY/WX    TMP DP  RH WIND       PRES   REMARKS
ALGONA *       CLEAR     50  45  81 W10       29.98R
CLARION *      CLEAR     48  46  93 SW7       29.97S
ESTHERVILLE    CLEAR     47  45  93 W9        29.96F
FORT DODGE *   PTCLDY    46  43  87 CALM      29.99S
MASON CITY     CLEAR     50  45  83 W10       29.96S
FOREST CITY *    N/A     46  37  71 W3        29.95S
WEBSTER CITY * CLEAR     48  45  87 SW9       29.97S
IOWA FALLS *     N/A     51  46  83 SW7       29.99S
$$

IAZ007>011-017>019-026>030-037>042-050>054-066-300900-
   NORTHEAST IOWA

CITY           SKY/WX    TMP DP  RH WIND       PRES   REMARKS
CEDAR RAPIDS   CLEAR     50  47  89 W7        29.96F
CHARLES CITY * CLEAR     52  46  82 W8        29.95S
CLINTON *      MOCLDY    51  47  86 W7        29.95S
DECORAH *      CLEAR     52  46  82 VRB3      29.91R
DUBUQUE        CLOUDY    53  47  79 W10       29.93S
MONTICELLO *   CLOUDY    55  46  71 W8        29.95S
OELWEIN *      CLEAR     50  48  93 W10       29.96R
WATERLOO       CLEAR     52  45  77 W8        29.96R
$$

IAZ064-065-067-068-078-300900-
   EAST CENTRAL IOWA

CITY           SKY/WX    TMP DP  RH WIND       PRES   REMARKS
DAVENPORT      PTCLDY    54  46  74 W8        29.96S
IOWA CITY      CLEAR     53  46  77 W6        29.99S
MT. PLEASANT * CLEAR     52  45  76 W5        30.00S
MUSCATINE *    CLEAR     54  46  76 W8        29.99R
QUAD CITIES      N/A     55  45  68 W6        29.95S
$$

IAZ062-063-075>077-085>089-095>099-300900-
   SOUTHEAST IOWA

CITY           SKY/WX    TMP DP  RH WIND       PRES   REMARKS
BURLINGTON     CLEAR     56  45  66 W7        29.99R
FAIRFIELD *    CLEAR     54  45  71 MISG      30.00S
FORT MADISON * CLEAR     55  46  71 W6        30.01R
KEOKUK *       CLEAR     52  46  82 CALM      30.00S
OSKALOOSA *      N/A     52  45  75 SW7       30.01S
OTTUMWA        CLEAR     51  46  83 W6        30.01S
WASHINGTON *   PTCLDY    52  48  87 W7        30.01R
$$

ABBREVIATIONS USED IN REMARKS
   TC - TEMPERATURES IN CELSIUS
  WCI - WIND CHILL INDEX
   HX - HEAT INDEX
  VSB - VISIBILITY
$$





USA.gov is the U.S. government's official web portal to all federal, state and local government web resources and services.